Stündliche Wetter Bolshie Kaybicy

Heute, 21 April, Mittwoch

Zeit Temperatur Niederschläge Wind Luftdruck Luftfeuchtigkeit
00:00 +2°C° 0 mm 7 m/S 760 mmHg 45%
01:00 +1°C° 0 mm 8 m/S 759 mmHg 46%
02:00 +1°C° 0 mm 8 m/S 759 mmHg 46%
03:00 +1°C° 0 mm 9 m/S 758 mmHg 46%
04:00 +1°C° 0 mm 9 m/S 758 mmHg 47%
05:00 +1°C° 0 mm 9 m/S 757 mmHg 48%
06:00 +1°C° 0 mm 9 m/S 757 mmHg 49%
07:00 0°C° 0.2 mm 9 m/S 757 mmHg 57%
08:00 0°C° 0.2 mm 9 m/S 757 mmHg 64%
09:00 0°C° 0.2 mm 9 m/S 757 mmHg 72%
10:00 0°C° 0 mm 10 m/S 757 mmHg 71%
11:00 0°C° 0 mm 10 m/S 757 mmHg 69%
12:00 +1°C° 0 mm 10 m/S 756 mmHg 67%
13:00 0°C° 0.5 mm 10 m/S 756 mmHg 73%
14:00 0°C° 0.5 mm 10 m/S 756 mmHg 80%
15:00 -1°C° 0.5 mm 9 m/S 756 mmHg 86%
16:00 -1°C° 0.7 mm 9 m/S 756 mmHg 88%
17:00 -1°C° 0.7 mm 9 m/S 756 mmHg 90%
18:00 -1°C° 0.7 mm 9 m/S 756 mmHg 92%
19:00 -1°C° 0.1 mm 9 m/S 756 mmHg 92%
20:00 -1°C° 0.1 mm 8 m/S 756 mmHg 93%
21:00 -1°C° 0.1 mm 8 m/S 755 mmHg 93%
22:00 0°C° 0 mm 8 m/S 755 mmHg 93%
23:00 0°C° 0 mm 8 m/S 755 mmHg 94%

Morgen, 22 April, Donnerstag

Zeit Temperatur Niederschläge Wind Luftdruck Luftfeuchtigkeit
00:00 0°C° 0 mm 7 m/S 755 mmHg 94%
01:00 0°C° 0 mm 7 m/S 755 mmHg 94%
02:00 +1°C° 0 mm 6 m/S 756 mmHg 94%
03:00 +2°C° 0 mm 6 m/S 756 mmHg 95%
04:00 +2°C° 0 mm 6 m/S 756 mmHg 95%
05:00 +2°C° 0 mm 5 m/S 757 mmHg 95%
06:00 +2°C° 0 mm 5 m/S 757 mmHg 96%
07:00 +2°C° 0 mm 5 m/S 757 mmHg 94%
08:00 +3°C° 0 mm 5 m/S 757 mmHg 92%
09:00 +5°C° 0 mm 5 m/S 758 mmHg 90%
10:00 +5°C° 0 mm 6 m/S 758 mmHg 84%
11:00 +8°C° 0 mm 6 m/S 758 mmHg 79%
12:00 +9°C° 0 mm 6 m/S 758 mmHg 74%
13:00 +10°C° 0.1 mm 6 m/S 757 mmHg 71%
14:00 +10°C° 0.1 mm 6 m/S 757 mmHg 68%
15:00 +11°C° 0.1 mm 6 m/S 757 mmHg 65%
16:00 +10°C° 0.4 mm 6 m/S 757 mmHg 69%
17:00 +10°C° 0.4 mm 5 m/S 757 mmHg 72%
18:00 +9°C° 0.4 mm 5 m/S 757 mmHg 76%
19:00 +8°C° 0.2 mm 5 m/S 758 mmHg 80%
20:00 +7°C° 0.2 mm 4 m/S 758 mmHg 85%
21:00 +6°C° 0.2 mm 4 m/S 758 mmHg 89%
22:00 +6°C° 0 mm 4 m/S 758 mmHg 90%
23:00 +7°C° 0 mm 3 m/S 758 mmHg 91%

übermorgen, 23 April, Freitag

Zeit Temperatur Niederschläge Wind Luftdruck Luftfeuchtigkeit
00:00 +5°C° 0 mm 3 m/S 758 mmHg 92%
01:00 +5°C° 0 mm 3 m/S 759 mmHg 92%
02:00 +6°C° 0 mm 2 m/S 759 mmHg 92%
03:00 +5°C° 0 mm 2 m/S 759 mmHg 92%
04:00 +5°C° 0 mm 2 m/S 759 mmHg 91%
05:00 +7°C° 0 mm 1 m/S 759 mmHg 91%
06:00 +7°C° 0 mm 1 m/S 760 mmHg 90%
07:00 +7°C° 0 mm 2 m/S 760 mmHg 82%
08:00 +9°C° 0 mm 2 m/S 760 mmHg 74%
09:00 +12°C° 0 mm 2 m/S 760 mmHg 65%
10:00 +13°C° 0 mm 2 m/S 760 mmHg 61%
11:00 +14°C° 0 mm 2 m/S 760 mmHg 56%
12:00 +15°C° 0 mm 2 m/S 759 mmHg 51%
13:00 +15°C° 0 mm 2 m/S 759 mmHg 51%
14:00 +15°C° 0 mm 2 m/S 759 mmHg 51%
15:00 +15°C° 0 mm 2 m/S 759 mmHg 50%
16:00 +14°C° 0 mm 2 m/S 759 mmHg 55%
17:00 +13°C° 0 mm 3 m/S 759 mmHg 60%
18:00 +12°C° 0 mm 3 m/S 759 mmHg 65%
19:00 +11°C° 0 mm 3 m/S 759 mmHg 69%
20:00 +10°C° 0 mm 3 m/S 758 mmHg 73%
21:00 +9°C° 0 mm 3 m/S 758 mmHg 77%
22:00 +9°C° 0 mm 3 m/S 758 mmHg 79%
23:00 +8°C° 0 mm 3 m/S 758 mmHg 82%

24 April, Samstag

Zeit Temperatur Niederschläge Wind Luftdruck Luftfeuchtigkeit
00:00 +8°C° 0 mm 3 m/S 757 mmHg 85%
01:00 +7°C° 0 mm 2 m/S 757 mmHg 86%
02:00 +7°C° 0 mm 2 m/S 757 mmHg 87%
03:00 +6°C° 0 mm 2 m/S 756 mmHg 88%
04:00 +6°C° 0 mm 2 m/S 756 mmHg 88%
05:00 +5°C° 0 mm 3 m/S 756 mmHg 88%
06:00 +5°C° 0 mm 3 m/S 755 mmHg 88%
07:00 +7°C° 0 mm 3 m/S 755 mmHg 84%
08:00 +7°C° 0 mm 4 m/S 754 mmHg 80%
09:00 +8°C° 0 mm 4 m/S 754 mmHg 76%
10:00 +8°C° 0 mm 4 m/S 753 mmHg 74%
11:00 +10°C° 0 mm 4 m/S 753 mmHg 73%
12:00 +10°C° 0 mm 4 m/S 752 mmHg 72%
13:00 +10°C° 0 mm 4 m/S 752 mmHg 73%
14:00 +8°C° 0 mm 4 m/S 752 mmHg 75%
15:00 +9°C° 0 mm 3 m/S 752 mmHg 76%
16:00 +9°C° 0 mm 3 m/S 751 mmHg 79%
17:00 +8°C° 0 mm 3 m/S 751 mmHg 82%
18:00 +8°C° 0 mm 3 m/S 751 mmHg 85%
19:00 +8°C° 0 mm 3 m/S 750 mmHg 87%
20:00 +7°C° 0 mm 3 m/S 750 mmHg 89%
21:00 +7°C° 0 mm 3 m/S 750 mmHg 90%
22:00 +7°C° 0 mm 3 m/S 749 mmHg 91%
23:00 +5°C° 0 mm 3 m/S 749 mmHg 92%

25 April, Sonntag

Zeit Temperatur Niederschläge Wind Luftdruck Luftfeuchtigkeit
00:00 +5°C° 0 mm 3 m/S 748 mmHg 93%
01:00 +5°C° 0.2 mm 3 m/S 748 mmHg 93%
02:00 +5°C° 0.2 mm 4 m/S 747 mmHg 92%
03:00 +5°C° 0.2 mm 4 m/S 747 mmHg 92%
04:00 +5°C° 1.5 mm 4 m/S 747 mmHg 93%
05:00 +3°C° 1.5 mm 5 m/S 747 mmHg 94%
06:00 +3°C° 1.5 mm 6 m/S 747 mmHg 95%
07:00 +4°C° 1.5 mm 6 m/S 747 mmHg 90%
08:00 +4°C° 1.5 mm 6 m/S 748 mmHg 85%
09:00 +5°C° 1.5 mm 6 m/S 748 mmHg 80%
10:00 +6°C° 0.1 mm 7 m/S 749 mmHg 72%
11:00 +8°C° 0.1 mm 7 m/S 749 mmHg 63%
12:00 +9°C° 0.1 mm 8 m/S 749 mmHg 55%
13:00 +10°C° 0.1 mm 8 m/S 750 mmHg 53%
14:00 +10°C° 0.1 mm 8 m/S 750 mmHg 51%
15:00 +10°C° 0.1 mm 7 m/S 750 mmHg 49%
16:00 +9°C° 0.1 mm 7 m/S 751 mmHg 51%
17:00 +9°C° 0.1 mm 6 m/S 751 mmHg 53%
18:00 +8°C° 0.1 mm 5 m/S 751 mmHg 56%
19:00 +7°C° 0.1 mm 4 m/S 752 mmHg 61%
20:00 +6°C° 0.1 mm 4 m/S 752 mmHg 67%
21:00 +5°C° 0.1 mm 3 m/S 752 mmHg 73%
22:00 +4°C° 0 mm 3 m/S 753 mmHg 74%
23:00 +4°C° 0 mm 3 m/S 753 mmHg 76%

26 April, Montag

Zeit Temperatur Niederschläge Wind Luftdruck Luftfeuchtigkeit
00:00 +3°C° 0 mm 3 m/S 753 mmHg 77%
01:00 +3°C° 0 mm 3 m/S 753 mmHg 79%
02:00 +3°C° 0 mm 2 m/S 754 mmHg 80%
03:00 +3°C° 0 mm 2 m/S 754 mmHg 81%
04:00 +3°C° 0 mm 2 m/S 754 mmHg 80%
05:00 +4°C° 0 mm 2 m/S 754 mmHg 79%
06:00 +4°C° 0 mm 2 m/S 754 mmHg 78%
07:00 +6°C° 0 mm 2 m/S 754 mmHg 71%
08:00 +7°C° 0 mm 2 m/S 754 mmHg 63%
09:00 +9°C° 0 mm 2 m/S 755 mmHg 56%
10:00 +9°C° 0 mm 2 m/S 754 mmHg 51%
11:00 +10°C° 0 mm 2 m/S 754 mmHg 46%
12:00 +12°C° 0 mm 2 m/S 754 mmHg 42%
13:00 +12°C° 0 mm 2 m/S 754 mmHg 40%
14:00 +13°C° 0 mm 1 m/S 754 mmHg 38%
15:00 +13°C° 0 mm 1 m/S 754 mmHg 37%
16:00 +13°C° 0 mm 1 m/S 753 mmHg 41%
17:00 +12°C° 0 mm 2 m/S 753 mmHg 45%
18:00 +12°C° 0 mm 2 m/S 753 mmHg 49%
19:00 +10°C° 0 mm 2 m/S 753 mmHg 53%
20:00 +8°C° 0 mm 2 m/S 752 mmHg 56%
21:00 +7°C° 0 mm 2 m/S 752 mmHg 59%
22:00 +7°C° 0 mm 2 m/S 752 mmHg 59%
23:00 +7°C° 0 mm 2 m/S 751 mmHg 60%
Mehr zeigen

Wir brauchen deine Erlaubnis

Meteoprog und unser Service Anbieter werden persönliche Daten aufbewahren, so wie Cookies, Geräte Bezeichnung oder ähnliche Technologien von deinem Gerät und Prozess, so wie Persönliche Daten Inhalte und Werbungen, genauso wie social Media und den Verkehr zu analysieren.

  • Aufbewahrung und/oder Zugang zu deiner Geräte Informationen.

    Cookies, Geräte Bezeichnung oder andere Informationen, können aufbewahrt oder Zugang zu deinem Gerät erhalten, für den Grund, der oben angegeben wird.

  • Personalisierte Werbung und Inhalte, Messungen, Einblick in das Publikum und Produkt Entwicklung.

    Werbungen und Inhalte können personalisiert werden, basierend auf ein Profil. Mehr Daten können besser personalisierte Werbungen und Inhalte hinzufügen. Werbung und Inhalte können gezeigt und gemessen werden. Einblicke über das Publikum, welche die Werbung gesehen haben und den Inhalt, können abgeleitet werden. So wie Daten können genutzt werden, um es zu verbessern oder die Benutzer Erfahrung zu verbessern das System und die Software.

Wenn du “Ich stimme zu” klickst, erlaubst du uns, die Cookies zu benutzen die Geräte Bezeichnung, den Web oder ähnliche Technologien zu benutzen. Deine Settings, können in deinem Gerät bei deinem Browser geändert werden.

Für den bestimmten Zweck, berechtigten Interessen beruhen darauf, mehr als auf den Inhalt. Du kannst mehr darüber in unseren Privaten und Cookie Politik lesen.